DECAYED

STARLINK-3361, 51151 (Decayed)

Orbit data source: Space-Track

STARLINK-3361, 51151 was a payload satellite owned by SpaceX/Seattle (US) in LEO that was launched on Wed, 19 Jan 2022 UTC via an FALCON 9 launch vehicle from the Air Force Eastern Test Range (AFETR). Payload-class satellites include a variety of spacecraft equipped with specific instruments for various scientific and technological missions. These include communications satellites like Starlink; space stations such as the ISS; scientific satellites like the Hubble; Earth observation satellites from companies like Planet Labs, Umbra, and HawkEye 360; GPS; miniature CubeSats for education and research; and military/defense satellites.

Not visible in the next 10 days
Identifier
51151, 2022-005AZ
Orbit
Decayed
Country
Flag of USUS
Related business
Manufacturer
SpaceX/Seattle
Mission
Decayed Commercial Communications
Bus & Motor
STARLINK, Unknown motor
Mass
297 kg wet, ~275 kg dry
Launch date (UTC)
2022-01-19 (4 years ago)
Launch vehicle
FALCON 9
Launch site
Air Force Eastern Test Range (AFETR)
Object type
Payload
Rocket body
Debris
Shape & HBR
Box + 1 Pan, 10.1 m
Radar Cross Section
13.562 m², Large (>1 m²)

Expand to show TLE details & history
Last TLE update: 7 months ago

TLE from 7 months ago
0 STARLINK-3361
1 51151U 22005AZ  25315.71036654  .10928968  12479-4  40255-3 0  9999
2 51151  53.1772   2.9338 0000820  71.9062 288.2077 16.44498233212418
Epoch: 2025-11-11T17:02Z
TLE epoch observation values (Epoch: 2025-11-11T17:02:55.669Z)
Latitude
-0.00004°
Longitude
56.1088°
Altitude
154.642 km
Speed
7.815 km/s
True Right ascension
00h 11m 44s
True Declination
0° 00' 00"
Sunlit
Object was in full shadow at epoch
Visualization orbit readout
Latitude
Unknown
Longitude
Unknown
Altitude
Unknown
Speed
Unknown
Apparent Right ascension
Unknown
Apparent Declination
Unknown
Sunlit
N/A
Visualization observer readout
Local Sidereal Time
21:35:14
Azimuth
Unknown
Elevation
Unknown
Doppler factor
Unknown
Orbital elements
Apogee altitude
154.665 km
Perigee altitude
153.594 km
Semi-major axis
6,532.267 km
Eccentricity
0.00008
Inclination
53.1772°
RAAN
2.9338°
Arg. of periapsis
71.9062°
True anomaly
288.19877°
Mean anomaly
288.2077°
Eccentric anomaly
288.20324°
Mean motion
4.111 °/min
Orbital period
87.57 mins
BSTAR
0.00040255
Loading maneuver chart data...
Computing Atmospheric mass density...
Loading historical data...
Loading historical data...
Loading historical data...
Loading historical data...
Loading historical data...
Loading historical data...
Loading historical data...

Documentation

Showing up to 5 results
|